There is an identification with 2007 TU149 (MPC 61115) by S. Nakano.  But
these observations shown below are not entered in a file of CMT.OBS on CBAT
web site.
    PK07T060* C2007 10 08.42677 08 13 43.79 +17 32 40.4 K07TE9U  18.8  cw0865704
    PK07T060  C2007 10 08.43799 08 13 44.92 +17 32 41.7 K07TE9U  18.7  cw0865704
    PK07T060  C2007 10 08.44923 08 13 46.03 +17 32 42.5 K07TE9U  18.6  cw0865704
    PK07T060  C2007 10 08.46044 08 13 47.12 +17 32 44.2 K07TE9U  18.5  cw0865704
    PK07T060  C2007 10 08.47167 08 13 48.18 +17 32 45.5 K07TE9U  19.1  cw0865704
    PK07T060  C2007 10 11.42659 08 18 42.76 +17 38 04.2 K07TE9U  18.6  cw0865704
    PK07T060  C2007 10 11.43790 08 18 43.82 +17 38 05.8 K07TE9U  18.5  cw0865704
    PK07T060  C2007 10 11.44916 08 18 44.96 +17 38 06.7 K07TE9U  19.6  cw0865704
    PK07T060  C2007 10 11.46043 08 18 46.00 +17 38 08.0 K07TE9U  18.8  cw0865704
    PK07T060  C2007 10 11.47170 08 18 47.08 +17 38 09.5 K07TE9U  18.6  cw0865704

    P/2007 T6 = 2007 TU149 (Catalina)
Epoch 2007 Aug. 8.0 TT = JDT 2454320.5  
T 2007 Aug. 19.66545 TT                                 Nakano
q   2.2322181            (2000.0)            P               Q
n   0.10359564     Peri.  335.86893     +0.16988895     -0.91420712
a   4.4899524      Node   102.63317     +0.95433108     +0.05952540
e   0.5028415      Incl.   22.15079     +0.24574364     +0.40085167
P   9.51 (+/- 0.02 day)
From 286 observations 2007 Oct. 8-2008 June 10, mean residual 0".75.
Residuals in seconds of arc 
2007/                     071111 G96  0.0   0.1-    080112 704 (1.7+  2.0+) 
071008 704  0.6+  0.2-    071111 G96  0.5+  0.1-    080112 704  1.0+  1.8+  
071008 704  0.7+  0.1-    071117 703  1.1-  0.5+    080112 B49  0.3+  0.3+  
071008 704  0.5+  0.5-    071117 703 (2.5-  0.7+)   080118 213  1.2-  1.3-  
071008 704  0.1+  0.0     071117 703  1.4-  0.0     080118 213  1.3-  1.3-  
071008 704  0.8-  0.0     071117 703  1.4-  0.2-    080118 213  1.4-  1.2-  
071011 704  0.5+  0.1-    071118 704  1.7+  0.0     080119 G96  1.3+  1.9+  
071011 704  0.2-  0.2+    071118 704  1.5+  0.0     080119 G96  1.2+  1.2+  
071011 704  0.4+  0.2-    071118 704  1.5+  0.0     080119 G96  1.1+  1.4+  
071011 704  0.5-  0.2-    071118 704  1.7+  0.2-    080119 G96  1.4+  1.7+  
071011 704  0.7-  0.0     071118 704  1.9+  0.2-    080119 G96 (1.2+  2.2+) 
071013 703  0.3-  0.1-    071120 704  1.8-  0.3-    080119 G96  1.2+  1.5+  
071013 703  0.3-  0.2-    071120 704  0.7+  0.1-    080119 G96  1.9+  1.2+  
071013 703  0.5-  0.4-    071120 704  0.7+  0.2-    080119 G96  1.4+  1.6+  
071013 703  0.1-  0.1-    071120 704  0.6+  0.4-    080119 J47  0.7-  1.0-  
071013 703  1.2-  0.0     071120 704  0.8+  0.8+    080119 J47  0.7-  1.1-  
071013 703  0.9-  0.3-    071120 349  0.3+  0.6+    080119 J47  0.5-  0.7-  
071014 H06  0.3+  0.4-    071120 349  0.3+  0.5+    080120 213  0.0   0.1+  
071014 H06  0.4+  0.4-    071120 349  0.4+  0.4+    080120 213  0.1-  0.1-  
071014 H06  0.7+  0.8-    071124 349  0.2-  0.2+    080121 B49  1.0+  0.6+  
071014 G96  0.1+  0.1+    071124 349  0.2-  0.2+    080126 213  1.0+  0.2+  
071014 G96  0.2-  0.1-    071124 349  0.0   0.1+    080126 213  0.5-  0.5-  
071014 G96  0.1+  0.2-    071127 204  0.2-  0.0     080126 349  1.6+  1.1+  
071014 G96  0.0   0.3-    071203 703  0.8-  0.9+    080126 349  1.4+  0.8+  
071014 673  0.2+  0.7-    071203 703 (1.6-  2.1+)   080127 D88 (0.8+  2.4+) 
071014 673  0.1+  0.9-    071203 703  1.8-  1.6+    080127 D88 (1.4+  2.3+) 
071014 673  0.2+  0.8-    071203 703  1.5-  1.6+    080127 D88  1.4+  1.1+  
071014 673  0.3+  0.6-    071205 561  0.6-  0.5-    080128 213  0.8-  1.8-  
071015 H06  0.8+  0.3-    071205 561  0.0   1.2-    080128 213  0.9-  1.8-  
071015 H06  0.5+  0.8-    071205 561  0.7-  0.9-    080128 213  0.2+  0.5-  
071015 G96  0.3-  0.0     071206 J47  0.1+  0.5-    080129 J47  0.3-  0.2-  
071015 G96  0.1+  0.1-    071206 J47  0.6-  0.8-    080129 J47  0.2-  0.2-  
071015 G96  0.2-  0.0     071206 J47  0.0   0.3-    080129 J47  0.2+  0.1+  
071015 G96  0.2-  0.1+    071215 703  0.6-  1.0+    080130 J51  0.2-  0.4-  
071015 673  0.1+  0.4+    071215 703  0.2+  0.8+    080130 J51  0.0   0.3-  
071015 673  0.7+  0.0     071215 703  0.2-  0.4+    080130 J51  0.6-  1.1-  
071016 204  0.2+  0.3-    071216 704  0.0   0.2+    080131 703  0.8-  1.6-  
071017 585  1.0-  0.4-    071216 704  0.8+  0.7+    080131 703  0.6-  0.7-  
071017 585  0.4-  0.3+    071216 704  1.2+  1.5+    080131 703  1.1+  1.1-  
071017 585  0.7+  0.8-    071216 704  0.9+  0.9+    080131 703  0.8-  0.7-  
071017 585 (2.8-  0.1-)   071216 704  0.7+  1.7+    080202 215  0.0   0.1+  
071018 585  0.1-  0.4-    071217 H45  0.2-  0.5-    080202 215  0.0   0.2-  
071018 585  1.4-  1.1-    071217 H45  0.6-  1.0-    080202 215  0.3-  0.9-  
071020 704  0.8+  0.3+    071217 H45  1.0-  1.3-    080203 118  0.5-  0.6-  
071020 704  1.8+  0.4+    071217 H45  1.3-  1.0-    080203 118  0.5-  0.9-  
071020 704  0.9+  0.8+    071217 H45  1.5-  1.8-    080203 118  1.0-  0.9-  
071020 704  0.1+  0.2+    071217 H45  1.3-  1.6-    080203 704  1.9+  0.2+  
071020 704  0.1+  0.6+    071218 349  0.2-  0.0     080203 704  0.3+  0.0   
071020 349  0.8-  0.3+    071218 349  0.2+  0.0     080203 704  1.0+  0.8+  
071020 349  0.4-  0.7+    071218 349  0.2+  0.2+    080203 B42  1.7-  0.5-  
071021 J47  0.5+  0.0     071219 G96  0.3+  0.8+    080204 B30 (4.8+  3.7+) 
071021 J47  0.4+  0.2-    071219 G96  0.5+  0.7+    080204 D29  1.2+  1.0+  
071021 J47  0.8+  0.3+    071219 G96  0.2+  0.4+    080204 D29  0.9+  1.4+  
071022 704  0.4+  0.6+    071219 G96  0.9+  0.6+    080204 D29 (1.8+  2.2+) 
071022 704  0.5+  0.4+    071221 246  0.1-  0.0     080204 D29  1.7+  1.7+  
071022 704  0.6+  0.6+    071221 246  0.5+  0.0     080205 118 (2.4-  2.3-) 
071022 704  0.2+  0.5+    071221 246  0.8+  0.3+    080205 118 (2.0-  4.3-) 
071022 704  0.5+  0.5+    071221 246  0.2+  0.2-    080205 118 (3.5-  4.4-) 
071023 734  0.0   0.4-    071221 246  0.0   0.7-    080207 204  1.3-  1.0-  
071023 734  0.1+  0.4-    071221 246  0.2+  0.3-    080207 204  1.0-  0.9-  
071023 734  0.2+  0.4-    071221 246  0.0   0.2+    080209 213  1.0+  0.8+  
071025 G96  0.4-  0.3-    071221 246  0.3+  0.2-    080209 213  1.0+  0.7+  
071025 G96  0.0   0.4-    071221 246  0.0   0.2-    080210 703  0.9-  0.2-  
071025 G96  0.0   0.1-    071221 246  0.3+  0.0     080210 703  1.9-  1.5-  
071025 G96  0.0   0.0     071221 246  0.3+  0.0     080210 703 (2.1-  0.3-) 
071026 G96  0.1-  0.0     071221 246  0.4+  0.3-    080210 703  0.7-  0.5-  
071026 G96  0.1-  0.1-    071221 246  0.5+  0.2-    080210 699 (2.1+  2.1+) 
071026 G96  0.1-  0.1-    071221 246  0.5-  0.5-    080210 699 (2.0+  2.2+) 
071026 G96  0.9-  0.7-    071221 246  0.2+  0.2-    080210 699 (2.0+  3.6+) 
071102 850  0.2+  0.9-    071224 213  0.2-  0.1+    080210 699 (2.1+  2.0+) 
071102 850  0.9+  0.5-    071224 213  0.0   0.4+    080212 235  0.6+  0.4+  
071103 349  0.1+  0.1-    071229 213  0.4-  0.5+    080213 703 (1.8+  3.0+) 
071103 349  0.3+  0.1-    071229 213  0.4-  0.5+    080213 703 (1.2+  3.4+) 
071103 349  0.1+  0.1+    071229 213  0.8+  0.4+    080213 703 (0.5+  2.3+) 
071104 213  0.2-  0.7+    071230 D88  0.3-  1.0+    080213 703 (0.7+  3.0+) 
071104 213  0.6-  0.8+    071230 D88  0.4-  0.8+    080213 704  0.5-  0.1-  
071104 213  0.1+  0.4+    071230 D88  0.1-  0.5+    080213 704  0.3-  0.3+  
071106 585  1.7-  0.8-    071230 355  1.0+  1.2+    080213 704 (1.8+  3.2+) 
071106 585  0.2+  0.0     071230 355  0.9+  0.4+    080214 J47  0.2-  0.2-  
071106 585  0.2-  0.1-    071230 355  0.0   0.4+    080214 J47  0.3-  0.4-  
071106 704  0.7+  0.0     071230 355  0.0   0.3+    080214 J47  0.3-  0.4-  
071106 703  0.3-  0.2+    2008/                     080224 A21  1.5-  1.1-  
071106 704  0.4+  0.1-    080105 704  0.5+  0.1+    080224 A21  1.0-  0.1+  
071106 703  0.9-  0.6+    080105 704  0.5+  1.1+    080224 A21  1.0-  0.8+  
071106 703  0.9-  0.3+    080105 704  1.0+  1.0+    080228 291  1.2-  1.8-  
071106 704  0.3+  0.3+    080105 704 (3.5+  4.5+)   080228 291  0.8-  1.1-  
071106 703  0.9-  0.5+    080105 900  0.3-  1.0-    080228 291  0.8-  1.3-  
071106 704  0.4-  0.2-    080105 900  1.2-  1.9-    080228 A77  0.2-  0.2+  
071106 704  0.4+  0.5-    080106 J47  1.2-  0.9-    080228 A77  0.9+  0.2-  
071107 703  0.7-  0.6+    080106 J47  0.3-  0.2-    080228 A77  0.6-  0.0   
071107 703  0.8-  0.9+    080106 J47  0.5+  0.5+    080302 B37 (0.5+  2.0+) 
071107 703  1.4-  0.8+    080108 118  0.0   0.5-    080302 B37 (2.0+  2.3+) 
071107 703  1.3+  1.3+    080108 118  0.1-  0.6-    080302 B37 (4.2+  2.6+) 
071107 850  0.2+  0.2-    080110 H45  0.1-  0.9-    080304 703  1.0+  1.1+  
071107 850  0.2+  0.4-    080110 H45  0.5-  0.5-    080304 703  0.4-  0.9+  
071108 130  1.2-  0.6-    080110 H45  0.0   0.1-    080304 703 (2.8-  0.7+) 
071108 130  0.4-  0.2+    080110 H45  0.1-  0.4-    080323 J47  0.1+  0.6-  
071108 130  0.4-  0.3+    080110 H45  0.2-  0.4-    080323 J47  0.3-  0.6-  
071108 130  0.8-  0.1-    080111 400 (0.2+  2.0+)   080323 J47  0.7-  0.3-  
071110 J47  0.8-  0.8+    080111 400  0.7+  1.0+    080407 215  0.7-  0.3+  
071110 J47  0.6-  0.6+    080111 400  0.4+  0.8+    080427 J29 (4.2+  0.8+) 
071110 J47  0.0   0.4+    080112 B40  0.4-  0.7-    080427 J29  1.5+  1.1+  
071111 J52  0.1-  0.3+    080112 B40  1.8-  0.9-    080427 J29  0.9+  0.7+  
071111 J52  0.8-  1.7-    080112 704  1.0+  1.2+    080610 291  0.1-  0.4+  
071111 G96  0.1+  0.4-    080112 704  0.7+  1.4+    080610 291  1.4+  0.5-  
071111 G96  0.3+  0.2-    080112 704 (1.7+  2.3+)   080610 291  1.0+  0.4+  

NAKANO
         **** Don't distribute anyone except personal use only ****
                (C) Copyright 2009 OAA/ComputingSection
write mail from CFAD0::NAKANO on 2009-01-06 06:55:26(JST).
 

  P/2007 T6 (Catalina)

Epoch 2007 Aug. 8.0 TT = JDT 2454320.5  

T 2007 Aug. 19.66424 TT                                 Nakano

